Location: Chervonnoye
(48.6000°N, 34.4000°E)
Time: 13:57:22
(UTC+00:00)

Cosmos 2369 Rocket - Pass Details

Date: 23 November 2020
Orbit: 829 x 852 km, 71.0° (Epoch: 27 January)

Event Time Altitude Azimuth Distance (km) Brightness Sun altitude
Rises 16:27:37 0° 334° (NNW) 3,428 5.7 -24.8°
Reaches altitude 10° 16:30:09 10° 339° (NNW) 2,487 4.8 -25.2°
Enters shadow 16:34:32 44° 17° (NNE) 1,159 2.7 -26.0°
